Wind_Speed
31 31 28 31 29 25 28 25 17 15 23 31 37 38 36 32 44 44 47 46 47 40 37 37 36 34 31 33 36 34 38 35 31 30 22 18 19 23 25 31 34 37 39
30 28 28 33 32 28 24 28 18 22 29 31 30 26 30 34 39 45 45 51 49 45 43 41 40 40 37 35 34 37 40 35 28 21 18 20 25 28 29 33 31 32 34
34 30 30 30 29 27 26 26 30 30 37 36 31 29 27 28 36 46 49 45 45 46 44 45 41 40 39 37 33 30 31 27 26 26 27 31 32 29 30 31 31 28 25
33 24 18 19 27 26 33 35 38 40 46 35 40 35 28 28 30 38 51 55 49 48 48 49 43 44 40 36 35 31 29 32 32 34 35 38 36 32 32 35 35 31 27
39 38 38 44 31 28 31 34 35 41 46 40 43 40 31 26 27 32 37 45 50 46 50 49 49 50 45 40 38 36 36 36 38 39 38 38 38 34 36 35 36 35 33
45 36 39 37 30 28 23 33 31 39 37 33 33 29 27 26 25 26 29 33 42 46 41 44 46 53 50 47 43 43 41 44 42 43 42 41 37 38 35 32 30 33 31
51 46 41 59 42 35 37 33 28 37 24 16 21 28 38 33 32 23 23 29 37 39 42 47 48 42 49 50 47 45 45 47 46 44 44 41 39 36 29 28 31 38 38
53 48 51 56 57 41 37 38 30 34 28 20 21 25 32 40 30 24 22 23 25 28 33 33 36 43 40 43 50 51 48 47 45 44 37 36 35 33 32 33 32 34 31
53 43 48 58 57 50 47 43 40 41 33 22 24 31 31 33 38 41 27 23 29 27 27 31 34 39 42 42 46 52 49 50 49 45 36 36 39 34 32 33 32 36 33
35 37 40 50 44 49 44 44 42 43 40 31 31 33 38 39 35 28 26 24 26 29 31 35 33 30 34 39 44 47 47 50 52 47 43 40 39 38 38 39 38 35 34
38 29 31 40 45 52 50 46 42 42 44 38 33 35 39 40 33 27 26 22 23 29 36 39 38 36 33 37 42 46 48 49 50 47 47 45 43 42 42 45 38 38 38
43 37 31 31 34 39 43 39 45 45 44 38 37 40 41 38 32 25 25 28 27 26 29 39 38 43 39 40 41 46 49 50 50 47 49 48 49 50 47 47 46 45 43
48 45 48 51 35 44 43 45 45 48 37 33 40 47 43 39 36 35 37 32 31 33 34 36 39 44 44 43 45 41 45 49 47 43 44 47 50 53 52 49 47 46 46
43 43 48 53 52 51 51 44 47 47 45 51 52 52 46 45 44 41 39 47 52 44 41 36 40 43 46 43 45 47 48 48 47 50 49 51 53 53 51 51 53 52 50
44 42 43 47 51 55 55 55 53 51 56 58 54 51 49 48 45 47 48 52 49 46 42 45 48 41 41 48 54 52 52 54 53 52 52 55 56 57 57 59 56 57 57
47 46 50 57 55 60 64 63 61 60 50 46 44 46 55 60 61 59 56 49 51 51 59 58 45 44 41 45 48 51 53 55 58 62 60 60 60 60 62 61 60 57 61
54 48 53 59 61 69 64 68 66 61 54 61 60 62 58 55 63 65 68 64 68 66 69 72 54 60 72 72 73 70 67 66 61 52 57 62 64 62 62 60 61 62 60
64 57 55 62 67 71 72 72 74 72 71 75 72 71 69 71 72 73 69 79 72 78 73 79 74 68 83 87 74 68 62 69 62 57 59 60 59 63 60 58 65 63 63
67 72 66 64 65 70 73 73 78 81 79 78 78 72 72 76 83 85 87 83 79 77 73 70 76 83 86 86 84 74 67 64 61 63 65 61 63 62 65 70 72 70 71
63 69 80 80 77 76 73 74 76 82 83 83 85 89 89 86 85 90 91 92 88 88 91 97 98 97 89 91 75 64 63 62 61 62 65 66 66 69 69 76 76 74 75
62 72 79 79 79 80 80 85 84 86 84 82 90 89 87 85 86 84 86 97 105 107 98 104 89 93 90 95 74 67 60 62 64 64 64 72 75 76 75 79 84 84 84
65 68 74 78 87 92 92 92 95 93 95 93 98 97 93 95 100 98 100 107 109 107 107 108 105 96 96 95 73 67 60 65 67 66 65 71 76 73 78 83 88 89 90
71 74 73 80 85 85 87 90 91 96 101 101 105 110 110 113 116 114 115 116 116 119 109 107 102 90 84 76 67 67 65 65 70 73 71 73 78 80 81 83 85 85 87
82 85 88 90 91 96 101 106 108 109 112 117 118 118 119 121 121 124 117 112 115 108 103 101 84 78 74 65 63 65 68 66 69 75 80 84 82 82 85 87 96 98 93
88 94 95 97 101 104 103 108 112 112 114 115 116 121 113 106 120 118 111 105 93 93 90 84 75 71 66 61 59 57 60 67 71 74 80 84 84 90 95 95 96 100 103
93 92 96 106 109 112 111 113 122 121 122 122 118 113 111 109 105 94 82 75 70 68 65 64 67 66 64 63 59 56 57 58 66 75 80 84 89 92 94 98 101 105 106
Wind_Direction
254 258 265 269 270 268 267 256 264 300 314 300 291 275 283 263 244 244 241 243 244 241 246 251 249 254 259 257 252 252 247 255 262 258 250 252 268 277 276 291 289 287 287
256 265 263 266 272 274 263 249 237 293 324 321 316 301 280 257 246 238 241 237 241 244 245 246 244 251 255 253 256 251 243 249 246 239 264 268 276 286 282 286 290 289 294
241 241 249 260 267 263 258 253 260 284 301 317 319 318 298 279 249 236 235 235 236 239 243 245 246 245 245 252 252 247 242 240 239 248 258 270 276 280 277 279 282 290 296
224 230 246 276 270 279 271 266 270 277 294 304 317 315 316 303 268 250 237 236 237 243 242 245 243 242 239 243 242 234 236 239 247 256 267 277 278 278 274 276 280 281 285
242 260 284 280 274 281 272 274 274 277 281 294 307 319 320 301 274 258 247 247 245 243 243 247 248 245 242 235 237 232 235 244 261 261 273 275 276 268 274 278 275 274 276
247 251 238 257 266 268 270 274 271 272 283 294 318 331 312 317 299 271 254 246 248 246 248 248 252 245 243 237 239 241 247 256 263 270 276 277 265 263 271 277 274 272 273
251 250 239 244 258 262 270 279 262 267 285 316 351 4 356 327 310 283 260 247 243 243 251 252 252 254 247 241 242 242 246 256 265 271 271 275 267 267 275 273 270 270 281
250 252 241 245 249 244 263 263 262 271 269 284 313 323 337 343 347 307 277 256 245 252 253 259 260 256 257 258 252 245 248 257 264 270 270 273 275 268 272 277 286 283 284
248 239 238 239 246 249 254 253 264 263 265 274 297 305 323 328 341 339 309 268 246 248 256 252 259 263 267 259 255 251 251 258 263 266 267 271 273 269 282 284 282 285 283
242 235 234 234 239 247 249 247 250 246 260 267 283 295 304 309 330 332 316 284 263 256 260 258 254 260 262 256 252 250 252 257 262 263 261 267 273 271 281 281 283 286 284
236 229 238 253 257 258 259 256 235 242 260 273 273 283 297 304 324 334 315 289 278 262 257 259 260 257 261 258 249 251 254 256 259 264 261 266 268 273 275 278 278 280 287
229 220 235 228 227 241 235 223 236 253 265 274 273 283 292 297 305 316 329 320 297 277 272 259 265 268 267 265 257 249 249 253 257 261 263 264 265 269 272 276 281 285 287
231 225 229 227 242 236 229 237 247 255 263 265 274 282 281 289 286 295 302 309 322 304 284 273 269 265 263 260 256 258 259 258 259 259 258 258 264 268 272 274 277 282 287
229 230 232 227 242 245 248 242 253 262 269 268 270 277 282 283 288 287 284 287 299 298 313 293 291 274 263 256 265 264 261 259 263 262 262 265 267 272 272 273 276 279 282
226 217 219 226 233 242 235 237 251 263 266 268 271 272 277 279 281 283 287 290 295 289 292 308 305 289 287 274 264 264 261 261 263 263 269 268 268 268 270 271 272 275 277
218 220 230 231 231 234 238 242 251 256 256 260 265 264 270 274 277 282 284 283 285 285 294 284 295 285 284 289 289 274 260 264 270 270 271 267 269 270 266 268 271 269 271
226 226 231 235 232 232 241 248 250 258 265 262 268 271 274 275 278 278 279 283 290 291 290 291 279 291 299 292 291 289 286 281 283 278 271 266 268 264 263 274 272 274 271
228 237 241 237 239 242 244 250 254 258 265 266 270 275 280 280 280 284 288 289 296 291 293 293 292 293 303 303 295 283 281 276 272 270 260 262 262 263 266 265 264 267 268
233 239 240 242 247 251 251 257 257 261 264 268 271 276 277 279 279 282 284 285 289 293 292 290 290 294 298 301 297 282 277 273 258 256 257 257 261 260 259 264 267 269 270
242 244 242 247 252 257 257 258 261 261 267 268 272 276 277 281 283 283 283 285 283 287 292 290 292 294 290 300 293 273 270 263 246 246 251 254 255 255 256 259 262 261 263
253 251 251 253 258 260 261 266 264 266 269 272 273 279 282 281 284 283 288 287 287 287 289 293 291 294 297 302 288 275 263 251 239 241 246 246 248 249 251 253 256 258 263
253 253 255 258 258 257 260 266 266 270 272 272 273 273 277 277 279 279 285 285 287 288 289 289 290 289 292 293 283 274 261 246 233 234 237 241 243 247 252 256 259 262 262
257 258 260 259 261 262 265 270 271 271 271 272 275 274 276 280 280 284 283 289 289 289 288 286 286 285 286 282 273 264 256 247 244 232 239 242 239 239 242 246 249 253 255
264 263 261 265 267 266 267 268 270 271 272 275 274 275 277 279 283 283 286 287 284 282 284 284 277 275 274 267 263 260 252 247 245 241 237 243 242 243 242 247 250 250 252
266 267 269 269 269 269 271 268 269 272 276 278 281 284 281 285 286 284 281 279 278 277 277 268 263 262 263 259 257 255 252 247 247 246 245 247 249 251 250 251 254 255 258
268 271 272 270 270 268 270 272 270 273 278 278 278 282 282 280 280 279 278 276 273 271 266 260 256 253 254 253 254 258 259 255 252 249 250 251 251 252 253 255 259 262 262
Height
10864 10864 10868 10869 10871 10872 10871 10872 10873 10876 10875 10873 10871 10871 10871 10869 10872 10877 10881 10884 10888 10891 10892 10895 10897 10899 10899 10898 10898 10899 10900 10901 10903 10903 10904 10904 10905 10905 10905 10904 10901 10897 10895
10858 10859 10860 10861 10862 10865 10864 10864 10865 10866 10864 10863 10860 10858 10857 10855 10857 10862 10867 10872 10876 10879 10882 10883 10886 10889 10890 10891 10890 10890 10891 10893 10895 10897 10898 10898 10898 10898 10897 10895 10893 10889 10886
10846 10849 10848 10851 10853 10855 10857 10859 10859 10858 10856 10857 10853 10849 10847 10846 10845 10848 10852 10856 10861 10867 10869 10872 10875 10878 10879 10881 10881 10881 10883 10886 10888 10889 10891 10890 10890 10889 10888 10886 10885 10883 10880
10837 10839 10841 10844 10844 10846 10848 10849 10851 10851 10848 10849 10845 10842 10838 10834 10833 10834 10837 10842 10847 10852 10857 10860 10862 10866 10869 10872 10873 10874 10876 10879 10881 10882 10882 10882 10881 10879 10878 10876 10876 10875 10873
10829 10834 10829 10840 10839 10837 10838 10839 10841 10842 10840 10841 10838 10833 10827 10824 10822 10820 10822 10828 10834 10839 10843 10848 10853 10856 10859 10861 10864 10865 10867 10869 10871 10872 10873 10873 10872 10869 10869 10867 10866 10866 10865
10819 10826 10837 10831 10830 10830 10829 10829 10831 10832 10832 10831 10829 10824 10819 10816 10815 10812 10812 10816 10822 10827 10832 10835 10840 10843 10847 10850 10853 10856 10859 10860 10861 10862 10864 10863 10861 10860 10858 10859 10857 10858 10857
10808 10809 10812 10814 10817 10821 10819 10822 10821 10825 10825 10823 10820 10819 10815 10809 10808 10807 10805 10808 10812 10817 10822 10825 10828 10831 10836 10839 10841 10845 10848 10850 10851 10851 10852 10852 10851 10851 10849 10848 10848 10848 10847
10794 10798 10801 10803 10806 10808 10809 10813 10816 10818 10817 10813 10814 10813 10810 10808 10804 10803 10801 10802 10805 10810 10814 10817 10819 10821 10824 10827 10829 10833 10836 10839 10841 10842 10842 10841 10842 10841 10840 10839 10838 10837 10837
10780 10787 10791 10793 10793 10797 10799 10803 10808 10810 10810 10804 10804 10805 10804 10803 10803 10802 10799 10798 10799 10802 10806 10809 10811 10813 10815 10817 10819 10822 10825 10828 10829 10832 10831 10831 10831 10830 10829 10829 10828 10828 10826
10765 10770 10775 10779 10782 10783 10786 10792 10795 10799 10800 10796 10795 10795 10798 10798 10798 10796 10793 10792 10795 10796 10798 10801 10803 10805 10806 10808 10808 10810 10812 10815 10816 10818 10820 10820 10821 10820 10818 10816 10817 10816 10814
10757 10766 10770 10774 10776 10774 10777 10777 10781 10785 10786 10785 10785 10788 10790 10789 10791 10790 10789 10787 10788 10790 10792 10793 10795 10797 10797 10798 10799 10800 10801 10803 10804 10806 10808 10808 10809 10808 10807 10805 10804 10802 10802
10750 10753 10752 10761 10761 10763 10765 10767 10771 10774 10774 10773 10774 10776 10779 10778 10781 10784 10783 10783 10782 10782 10783 10785 10786 10788 10790 10791 10790 10790 10790 10792 10792 10795 10795 10795 10795 10795 10794 10793 10791 10790 10788
10742 10743 10746 10751 10755 10755 10759 10762 10762 10764 10761 10762 10763 10765 10768 10771 10772 10774 10777 10775 10778 10777 10775 10775 10776 10775 10777 10780 10781 10782 10781 10780 10781 10782 10782 10782 10781 10780 10780 10779 10778 10776 10776
10735 10737 10737 10741 10743 10746 10749 10752 10750 10748 10748 10751 10753 10753 10755 10759 10760 10761 10763 10765 10769 10769 10771 10767 10766 10766 10765 10769 10771 10771 10771 10770 10769 10768 10768 10768 10767 10766 10766 10765 10765 10763 10762
10724 10727 10730 10732 10735 10736 10735 10737 10737 10736 10737 10738 10740 10741 10741 10744 10747 10749 10749 10750 10751 10754 10756 10756 10754 10754 10751 10758 10760 10760 10759 10757 10754 10754 10754 10753 10752 10752 10751 10749 10750 10750 10748
10709 10712 10718 10720 10721 10721 10722 10723 10724 10723 10723 10724 10725 10725 10728 10729 10732 10734 10736 10737 10738 10739 10743 10746 10746 10745 10746 10745 10746 10746 10742 10740 10738 10737 10736 10736 10736 10734 10733 10732 10732 10733 10733
10697 10699 10700 10701 10703 10703 10703 10705 10707 10706 10707 10708 10709 10709 10711 10713 10716 10718 10717 10716 10720 10719 10723 10725 10728 10732 10729 10728 10726 10724 10723 10723 10719 10721 10720 10720 10719 10718 10717 10715 10714 10712 10712
10683 10686 10687 10689 10691 10690 10692 10692 10695 10694 10694 10694 10695 10694 10696 10699 10699 10698 10697 10696 10698 10699 10701 10703 10706 10705 10705 10704 10703 10703 10699 10697 10699 10700 10703 10703 10703 10703 10701 10700 10698 10695 10693
10664 10668 10671 10674 10675 10676 10675 10675 10676 10676 10675 10677 10677 10676 10678 10679 10679 10678 10680 10679 10677 10676 10679 10679 10680 10682 10679 10679 10677 10678 10676 10675 10676 10679 10679 10684 10685 10684 10684 10681 10680 10678 10675
10644 10647 10649 10651 10652 10651 10653 10655 10655 10657 10656 10660 10659 10660 10661 10661 10660 10659 10659 10659 10659 10657 10657 10654 10654 10653 10650 10649 10647 10644 10648 10649 10654 10657 10659 10662 10661 10663 10664 10662 10660 10658 10654
10624 10627 10630 10630 10631 10633 10634 10635 10636 10637 10638 10642 10643 10638 10640 10639 10640 10638 10637 10634 10633 10633 10630 10629 10625 10625 10619 10619 10619 10619 10619 10624 10628 10631 10636 10640 10639 10640 10640 10637 10636 10636 10636
10606 10608 10610 10612 10614 10614 10614 10615 10614 10614 10615 10616 10615 10614 10612 10610 10613 10613 10610 10608 10608 10607 10602 10602 10601 10597 10592 10592 10592 10592 10595 10597 10603 10607 10610 10613 10613 10615 10618 10618 10614 10612 10610
10588 10589 10588 10590 10590 10589 10590 10591 10590 10592 10590 10589 10588 10589 10586 10585 10583 10586 10587 10582 10577 10576 10574 10569 10568 10567 10564 10565 10565 10568 10570 10573 10579 10585 10587 10586 10588 10589 10589 10589 10587 10584 10583
10569 10570 10571 10570 10569 10569 10567 10567 10568 10567 10566 10564 10561 10559 10557 10555 10553 10553 10550 10550 10547 10543 10542 10537 10534 10537 10539 10541 10543 10544 10546 10548 10552 10558 10560 10559 10562 10564 10562 10561 10557 10558 10556
10550 10547 10546 10545 10544 10542 10540 10542 10542 10542 10542 10540 10538 10531 10528 10523 10521 10517 10509 10514 10511 10507 10510 10509 10507 10511 10515 10519 10522 10522 10524 10527 10529 10532 10534 10535 10536 10536 10536 10536 10534 10531 10529
10525 10523 10522 10520 10517 10516 10517 10516 10514 10515 10513 10509 10505 10501 10495 10489 10491 10489 10483 10479 10477 10477 10478 10480 10482 10487 10492 10496 10499 10501 10503 10505 10507 10510 10512 10512 10512 10511 10510 10508 10505 10501 10497